| time (UTC) | temp F | wind direction | speed MPH | gust MPH | rain 1hr in | rain 24hr in | rain mn in | humidity % | barometer mb |
| 20260506110150 | 57 | 3 | 0.0 | 0.0 | 0.01 | 0.04 | 0.04 | 96 | 1106.0 |
| 20260506103032 | 57 | 67 | 1.0 | 3.0 | 0.00 | 0.03 | 0.03 | 96 | 1105.3 |
| 20260506101530 | 57 | 67 | 0.0 | 3.0 | 0.00 | 0.03 | 0.03 | 96 | 1105.5 |
| 20260506100114 | 56 | 67 | 0.0 | 2.0 | 0.00 | 0.03 | 0.03 | 96 | 1105.5 |
| 20260506094539 | 56 | 67 | 0.0 | 1.0 | 0.00 | 0.03 | 0.03 | 96 | 1105.6 |
| 20260506093040 | 56 | 67 | 0.0 | 0.0 | 0.00 | 0.03 | 0.03 | 96 | 1105.4 |
| 20260506091529 | 56 | 67 | 0.0 | 1.0 | 0.00 | 0.03 | 0.03 | 96 | 1105.3 |
| 20260506090029 | 56 | 67 | 0.0 | 2.0 | 0.00 | 0.03 | 0.03 | 95 | 1105.3 |
| 20260506084540 | 56 | 67 | 0.0 | 1.0 | 0.00 | 0.03 | 0.03 | 95 | 1105.3 |
| 20260506081551 | 57 | 67 | 0.0 | 2.0 | 0.00 | 0.03 | 0.03 | 95 | 1105.6 |
| 20260506073042 | 57 | 67 | 0.0 | 1.0 | 0.00 | 0.03 | 0.03 | 94 | 1105.8 |
| 20260506071538 | 57 | 67 | 0.0 | 2.0 | 0.00 | 0.03 | 0.03 | 94 | 1105.7 |
| 20260506061538 | 58 | 67 | 0.0 | 1.0 | 0.02 | 0.03 | 0.01 | 94 | 1106.9 |
| 20260506050141 | 57 | 67 | 0.0 | 1.0 | 0.01 | 0.01 | 0.01 | 92 | 1106.9 |
| 20260506044658 | 57 | 67 | 0.0 | 2.0 | 0.01 | 0.01 | 0.01 | 92 | 1107.2 |
| 20260506043031 | 57 | 58 | 0.0 | 3.0 | 0.01 | 0.01 | 0.00 | 92 | 1107.5 |
| 20260506041606 | 56 | 360 | 0.0 | 2.0 | 0.00 | 0.00 | 0.00 | 91 | 1107.7 |
| 20260506040042 | 56 | 360 | 0.0 | 1.0 | 0.00 | 0.00 | 0.00 | 91 | 1107.8 |
| 20260506034528 | 56 | 360 | 0.0 | 0.0 | 0.00 | 0.00 | 0.00 | 89 | 1107.7 |
| 20260506033050 | 0 | 0 | 0.0 | 0.0 | 0.00 | 0.00 | 0.00 | 100 | |
| 20260506030042 | 0 | 0 | 0.0 | 0.0 | 0.00 | 0.00 | 0.00 | 100 | |
| 20260506024615 | 0 | 0 | 0.0 | 0.0 | 0.00 | 0.00 | 0.00 | 100 | |
| 20260506023038 | 0 | 0 | 0.0 | 0.0 | 0.00 | 0.00 | 0.00 | 100 | |
| 20260506021644 | 0 | 0 | 0.0 | 0.0 | 0.00 | 0.00 | 0.00 | 100 | |
| 20260506020051 | 0 | 0 | 0.0 | 0.0 | 0.00 | 0.00 | 0.00 | 100 | |
| 20260506011551 | 61 | 360 | 0.0 | 1.0 | 0.00 | 0.00 | 0.00 | 79 | 1106.5 |
| 20260506010151 | 0 | 0 | 0.0 | 0.0 | 0.00 | 0.00 | 0.00 | 100 | |
| 20260506004611 | 63 | 360 | 0.0 | 0.0 | 0.00 | 0.00 | 0.00 | 77 | 1106.8 |
| 20260506003039 | 64 | 360 | 0.0 | 0.0 | 0.00 | 0.00 | 0.00 | 74 | 1106.7 |
| 20260506001551 | 66 | 17 | 0.0 | 0.0 | 0.00 | 0.00 | 0.00 | 70 | 1106.5 |
| 20260506000038 | 67 | 22 | 0.0 | 0.0 | 0.00 | 0.00 | 0.00 | 67 | 1106.4 |
| 20260505234639 | 71 | 239 | 5.0 | 13.0 | 0.00 | 0.00 | 0.00 | 50 | 1111.0 |
| 20260505163143 | 70 | 249 | 5.0 | 11.0 | 0.00 | 0.00 | 0.00 | 50 | 1111.1 |
| 20260505161616 | 70 | 249 | 5.0 | 11.0 | 0.00 | 0.00 | 0.00 | 50 | 1111.0 |